Flag for Poland Weather past 2 weeks in Poznan, Poland

Now
70 °F

Sunny.


Feels Like: 70 °F
Forecast: 68 / 92 °F
Wind: 7 mph from East

Location: Poznan Airport

Current Time: Aug 2, 2014 at 10:12:04 AM

Latest Report: Aug 2, 2014 at 9:30 AM


Visibility: 10 mi

Pressure: 29.92 "Hg

Humidity: 83%

Dew point: 64 °F

Location of PoznanLocation

Historic Weather in Poznan — Graph

°F

Poznan temperature yesterday

Maximum temperature yesterday: 79 °F (at 3:30 PM)
Minimum temperature yesterday: 61 °F (at 2:30 AM)
Average temperature yesterday: 70 °F

Past Weeks' High & Low Weather Summary

 TemperatureHumidityPressure
High95 °F (Jul 20, 5:30 PM)100% (Jul 26, 6:00 AM)30.15 "Hg (Jul 26, 6:00 AM)
Low61 °F (Jul 24, 3:30 AM)23% (Jul 20, 5:30 PM)29.68 "Hg (Jul 30, 4:30 PM)
Average74 °F67%29.92 "Hg
* Reported Jul 18 9:00 AM — Aug 2 9:00 AM, Poznan, Weather by CustomWeather, © 2014

Note: Actual official high and low records may vary slightly from our data, if they occured in-between our weather recording intervals... More about our weather records

Advertising

Poznan weather history for previous 24 hours

 ConditionsComfort  
Time TempWeatherWind HumidityBarometerVisibility
9:00 AM
Aug 2
70 °FSunny.9 mph83%29.92 "Hg10 mi
8:30 AM68 °FSunny.7 mph83%29.92 "Hg10 mi
8:00 AM66 °FSunny.8 mph88%29.92 "Hg10 mi
7:30 AM66 °FSunny.9 mph88%29.92 "Hg10 mi
7:00 AM64 °FSunny.6 mph88%29.95 "Hg10 mi
6:30 AM64 °FPassing clouds.5 mph88%29.92 "HgN/A
6:00 AM64 °FClear.6 mph88%29.95 "Hg10 mi
5:30 AM64 °FClear.7 mph88%29.95 "Hg10 mi
5:00 AM64 °FPassing clouds.8 mph88%29.95 "HgN/A
4:30 AM64 °FPassing clouds.6 mph88%29.95 "HgN/A
4:00 AM64 °FPassing clouds.6 mph88%29.95 "HgN/A
3:30 AM64 °FPassing clouds.3 mph88%29.95 "HgN/A
3:00 AM64 °FPassing clouds.8 mph88%29.95 "HgN/A
2:30 AM64 °FPassing clouds.8 mph88%29.95 "HgN/A
2:00 AM64 °FPassing clouds.6 mph88%29.95 "HgN/A
1:30 AM66 °FClear.9 mph83%29.98 "Hg10 mi
1:00 AM66 °FClear.8 mph83%29.98 "Hg10 mi
12:30 AM66 °FClear.8 mph83%29.95 "Hg10 mi
12:00 AM66 °FClear.9 mph83%29.95 "Hg10 mi
11:30 PM
Aug 1
66 °FClear.7 mph83%29.95 "Hg10 mi
11:00 PM68 °FPassing clouds.8 mph78%29.95 "HgN/A
10:30 PM68 °FClear.9 mph78%29.95 "Hg10 mi
10:00 PM70 °FClear.7 mph73%29.98 "Hg10 mi
9:30 PM70 °FSunny.13 mph73%29.98 "Hg10 mi
9:00 PM72 °FSunny.9 mph69%29.98 "Hg10 mi
8:30 PM73 °FSunny.9 mph61%29.95 "Hg10 mi
8:00 PM75 °FPassing clouds.8 mph54%29.95 "HgN/A
7:30 PM75 °FSunny.9 mph50%29.95 "Hg10 mi
7:00 PM75 °FSunny.9 mph44%29.95 "Hg10 mi
6:30 PM75 °FSunny.12 mph47%29.95 "Hg10 mi
6:00 PM77 °FSunny.10 mph47%29.95 "Hg10 mi
5:30 PM77 °FSunny.9 mph47%29.95 "Hg10 mi
5:00 PM77 °FPassing clouds.9 mph51%29.95 "HgN/A
4:30 PM77 °FPassing clouds.8 mph51%29.95 "HgN/A
4:00 PM77 °FSunny.9 mph47%29.95 "Hg10 mi
3:30 PM79 °FScattered clouds.7 mph45%29.95 "HgN/A
3:00 PM77 °FScattered clouds.7 mph47%29.95 "HgN/A
2:30 PM77 °FScattered clouds.9 mph47%29.98 "HgN/A
2:00 PM77 °FPassing clouds.8 mph44%29.98 "HgN/A
1:30 PM77 °FSunny.10 mph42%29.98 "Hg10 mi
1:00 PM75 °FPassing clouds.9 mph47%29.98 "HgN/A
12:30 PM75 °FSunny.10 mph44%29.98 "Hg10 mi
12:00 PM75 °FPassing clouds.12 mph44%29.98 "HgN/A
11:30 AM75 °FSunny.9 mph50%29.98 "Hg10 mi
11:00 AM75 °FSunny.10 mph47%29.98 "Hg10 mi
10:30 AM73 °FSunny.7 mph50%29.98 "Hg10 mi
10:00 AM72 °FSunny.2 mph53%29.98 "Hg10 mi
Weather by CustomWeather, © 2014

See weather overviewHow to use our weather pages